Jackpot

Texas Poker Multi Jackpot System

Kini Telah hadir Jackpot SUPER ROYAL FLUSH

Kini Telah hadir Jackpot 2000 (khusus table VIP keatas).

Ikutilah global jackpot yang tersedia di system kami, dengan system jackpot terbaru dan pertama di indonesia, anda dapat membeli jackpot dengan harga 100 rupiah saja dan menangkan hadiahnya hingga puluhan juta rupiah.

Jackpot bukanlah suatu keharusan untuk dibeli, namun kami memberikan suatu fitur tambahan untuk member tercinta dari www.lajupoker.info.

Terdapat tiga pilihan harga jackpot yang bisa anda beli yaitu :100,500,1000 dan 2000(khusus table VIP Keatas) rupiah.

Hadiah dari Multi jackpot system www.lajupoker.info

  1. full house x 10 harga jackpot yang anda beli.
      (contoh:anda membeli 1000 maka:1000 X10 = 10.000)
  2. four of kind x 250 harga jackpot yang anda beli
      (contoh:anda membeli 1000 maka:1000 X250 = 250.000)
  3. Straight flush x 1200
      (contoh:anda membeli 1000 maka:1000 X1200 = 1.200.000)
  4. Royal flush x 10000 harga jackpot yang anda beli
      (contoh:anda membeli 1000 maka:1000 X10000 = 10.000.000)
  5. SUPER ROYAL FLUSH x 30000 harga jackpot yang anda beli
      (contoh:anda membeli 1000 maka:1000 X30000 = 30.000.000)

Kondisi kartu

  1. full house adalah kondisi kartu dimana kartu anda dan kartu tengah dengan total 7 kartu bisa mendapatkan nilai 5 kartu dengan kombinasi 1 tris(three of kind) dan 1 pair, contoh 3 kartu 10 dan 2 kartu 5
  2. Four of kind adalah kondisi kartu dimana kartu anda dan kartu tengah dengan total 7 kartu bisa mendapatkan nilai 5 kartu dengan kombinasi 4 kartu yang sama jumlah dan 1 kartu apapun juga contoh anda mendapatkan 4 buah kartu angka 3 dan 1 kartu apapun.
  3. Staright flush adalah kondisi kartu dimana kartu anda dan kartu tengah dengan total 7 kartu bisa mendapatkan nilai 5 kartu dengan kombinasi seri / staright dengan kembang yang sama contoh : urutan kartu dari angka 5, 6, 7, 8 , 9 10 dengan kembang yg sama misalnya as hati
  4. Royal flush adalah kondisi kartu dimana kartu anda dan kartu tengah dengan total 7 kartu bisa mendapatkan nilai 5 kartu dengan kombinasi seri / staright dengan kembang yang sama tetapi kartu tersebut haruslah dimulai dari 10. contoh 10, Queen, Jack, King dan aces dengan kembang yang sama
  5. Super Royal flush adalah kondisi kartu dimana Kedua kartu anda digabung dengan 3 kartu pertama meja haruslah royal flush. contoh kartu anda 10,Queen kembang sama dan 3 kartu pertama meja adalah Jack, King dan aces dengan kembang yang sama

Demikian adalah penjelasan dari Multi Jackpot www.lajupoker.info terima kasih dan selamat bermain salam hoki dari kami

Texas Poker Jackpot Winner

TOP SUPER ROYAL FLUSH
No.TanggalNamaPriceWin
128/05 11:36SAKITGIGI7Super Royal flush1,500,000
228/05 10:55ADNANN88Super Royal flush3,000,000
328/05 07:52SUGAR04Super Royal flush6,000,000
428/05 06:49YONO1103Super Royal flush6,000,000
528/05 06:30GORGOM999Super Royal flush6,000,000
TOP ROYAL FLUSH
No.TanggalNamaPriceWin
128/05 12:04311285Royal flush2,000,000
228/05 11:54JWGUNAWANRoyal flush20,000,000
328/05 11:50KAEL93Royal flush5,000,000
428/05 11:39FJKBRoyal flush20,000,000
528/05 11:35DECHANGGARoyal flush2,000,000
TOP STRAIGHT FLUSH
No.TanggalNamaPriceWin
128/05 12:14DANI312Straight Flush240,000
228/05 12:13RMZID4NEStraight Flush600,000
328/05 12:11LANTURIStraight Flush1,200,000
428/05 12:11C141EB85Straight Flush120,000
528/05 12:10RATELStraight Flush240,000
LATEST JACKPOT
No.TanggalNamaPriceWin
128/05 12:14YOUNGLAZFull House10,000
228/05 12:14XBT25Full House5,000
328/05 12:14OMAHJUDI93Full House1,000
428/05 12:14JAMISJR9Full House1,000
528/05 12:14QQY90THRGSFull House5,000
628/05 12:14RUDI0888Full House2,000
728/05 12:14PUNKSITFull House10,000
828/05 12:14B16B4Y12Full House5,000
928/05 12:14PR3M13R389Full House5,000
1028/05 12:14T4L4C0Full House2,000
1128/05 12:14B90JUNAFull House10,000
1228/05 12:14SERUS35Full House5,000
1328/05 12:14WIN45_Full House5,000
1428/05 12:14ERIKPLERFull House20,000
1528/05 12:14KOLOZZ12Full House2,000
1628/05 12:14CIROUSHAFull House10,000
1728/05 12:14DUITE123Full House2,000
1828/05 12:14VVL5ZDQGTOFull House10,000
1928/05 12:14CIMEY06Full House10,000
2028/05 12:14HERLIMFull House500
2128/05 12:14TAJJIL_KUFull House2,000
2228/05 12:14WADJIFull House5,000
2328/05 12:14DANI312Straight Flush240,000
2428/05 12:14NA_TASYAFull House5,000
2528/05 12:14RAJA_31Full House10,000
2628/05 12:14ANGKAT123Full House2,000
2728/05 12:14LWP1F6ES0GFull House5,000
2828/05 12:14AMJ2Full House10,000
2928/05 12:14BANCAI2105Full House1,000
3028/05 12:14ALCAPUNEFull House2,000
3128/05 12:14KOCINAWAFull House2,000
3228/05 12:14ANGEK31Full House2,000
3328/05 12:14PEREGERFull House2,000
3428/05 12:14ISQ7GT0NK4Full House2,000
3528/05 12:14TEMPIK01Full House2,000
3628/05 12:14CIMOL525Full House1,000
3728/05 12:14U_NEHFull House2,000
3828/05 12:14FOLMONBLUEFull House1,000
3928/05 12:14JIH4N15Full House2,000
4028/05 12:14BARABARA10Full House5,000
4128/05 12:14N4THAN55Full House2,000
4228/05 12:14JUNETTT90Four Of A Kind125,000
4328/05 12:14RONKOOHFull House1,000
4428/05 12:14CEKZ93Full House5,000
4528/05 12:14IBNUARIFINFull House5,000
4628/05 12:14T4UF1K18Full House1,000
4728/05 12:14AGUSTIAN25Full House20,000
4828/05 12:14VLTRFull House20,000
4928/05 12:13KUNZZFull House2,000
5028/05 12:13ACIIEFour Of A Kind250,000

Domino Multi Jackpot System

Ikutilah global jackpot yang tersedia di system kami, dengan system jackpot terbaru dan pertama di indonesia, anda dapat membeli jackpot dengan harga 100 rupiah saja dan menangkan hadiahnya hingga puluhan juta rupiah.

Jackpot bukanlah suatu keharusan untuk dibeli, namun kami memberikan suatu fitur tambahan untuk member tercinta dari www.lajupoker.info.

Terdapat tiga pilihan harga jackpot yang bisa anda beli yaitu :100,500 dan 1000 rupiah.

Hadiah dari Multi jackpot system www.lajupoker.info

  1. Murni Kecil x 50 harga jackpot yang anda beli.
      (contoh:anda membeli 1000 maka:1000 X 50 = 50.000)
  2. Murni Besar x 50 harga jackpot yang anda beli
      (contoh:anda membeli 1000 maka:1000 X 50 = 50.000)
  3. BALAK x 100 harga jackpot yang anda beli
      (contoh:anda membeli 1000 maka:1000 X 100 = 100.000)
  4. ENAM DEWA x 6666 harga jackpot yang anda beli
      (contoh:anda membeli 1000 maka:1000 X 6666 = 6.666.000)

Demikian adalah penjelasan dari Multi Jackpot www.lajupoker.info terima kasih dan selamat bermain salam hoki dari kami

Domino Jackpot Winner

TOP ENAM DEWA
No.TanggalNamaPriceWin
128/05 09:33OAACTG9VQ3murni enam6,666,000
228/05 06:37SILENCE90murni enam6,666,000
328/05 02:00FLIV6XYK0Lmurni enam6,666,000
428/05 01:44XF1JOFEE2Nmurni enam3,333,000
528/05 01:40SITAKAmurni enam3,333,000
TOP BALAK
No.TanggalNamaPriceWin
128/05 12:11WIZNHU90balak100,000
228/05 12:09RAVINUS23balak10,000
328/05 12:07PAKILLbalak10,000
428/05 12:06GKXFEQMJL7balak100,000
528/05 12:01MAPIA99balak50,000
LATEST JACKPOT
No.TanggalNamaPriceWin
128/05 12:14RAGRID40murni besar50,000
228/05 12:13PIETER83murni kecil25,000
328/05 12:13KHAIRRA25lucky9925,000
428/05 12:11WIZNHU90balak100,000
528/05 12:11JUAN30murni besar50,000
628/05 12:11RINTO90murni besar25,000
728/05 12:10BOROK8080murni kecil50,000
828/05 12:10HARMAIN9murni besar25,000
928/05 12:10B5D11murni besar5,000
1028/05 12:09SEMPROL83murni besar50,000
1128/05 12:09RAVINUS23balak10,000
1228/05 12:07PATWAL08murni kecil50,000
1328/05 12:07PAKILLbalak10,000
1428/05 12:06GKXFEQMJL7balak100,000
1528/05 12:05BOROK8080murni kecil50,000
1628/05 12:05MICIN01murni besar5,000
1728/05 12:04MELATIQ0lucky992,500
1828/05 12:04IWALL27murni besar50,000
1928/05 12:03CC5F45F6murni kecil50,000
2028/05 12:02M45BOZmurni besar50,000
2128/05 12:01LAMAUPE123murni kecil5,000
2228/05 12:01AJABAH99murni besar25,000
2328/05 12:01DJAPOENG99murni kecil50,000
2428/05 12:01MAPIA99balak50,000
2528/05 12:00SEKJEN72balak100,000
2628/05 11:59ERIS95murni kecil50,000
2728/05 11:59W4H4H4H4murni kecil50,000
2828/05 11:59BOROK8080murni besar50,000
2928/05 11:58GACOR557murni kecil25,000
3028/05 11:57TEOT52murni besar5,000
3128/05 11:56ASEPREO8murni kecil50,000
3228/05 11:56EIIGERRRmurni kecil50,000
3328/05 11:55ARIANUS0balak10,000
3428/05 11:55WAAUUUmurni kecil50,000
3528/05 11:54M4RBUN87lucky9950,000
3628/05 11:53SUS4HKL4Hmurni kecil25,000
3728/05 11:52ABOE0610murni besar50,000
3828/05 11:52ARGALINTONmurni kecil5,000
3928/05 11:51RIYANSA28lucky9950,000
4028/05 11:51SELENA97murni besar5,000
4128/05 11:49DJAPOENG99murni besar50,000
4228/05 11:48SANDRY1812murni kecil50,000
4328/05 11:46ALEN43murni kecil50,000
4428/05 11:45Z4Z7ZUmurni kecil25,000
4528/05 11:45JIMBO_CR7murni kecil50,000
4628/05 11:45KEBOGILA21murni kecil5,000
4728/05 11:45COMME1murni kecil50,000
4828/05 11:44KASELLAbalak50,000
4928/05 11:44NOJOYOSUAPmurni besar50,000
5028/05 11:43BBJ123murni besar25,000

Ceme Multi Jackpot System

Jackpot dilihat dari gabungan kartu pemain dengan kartu bandar. Bandar harus membeli jackpot sebanyak jumlah player yang sedang duduk. Sebagai contoh bila terdapat 3 pemain duduk bermain, dan bandar memutuskan untuk membeli jackpot Rp 1.000, maka pada periode tersebut bandar akan membeli jackpot sebanyak 3xRp1.000 = Rp3.000.

Jackpot bukanlah suatu keharusan untuk dibeli, namun kami memberikan suatu fitur tambahan untuk member tercinta dari www.lajupoker.info.

Terdapat tiga pilihan harga jackpot yang bisa anda beli yaitu :100,500 dan 1000 rupiah.

Hadiah dari Multi jackpot system www.lajupoker.info

  1. Murni Kecil x 50 harga jackpot yang anda beli.
      (contoh:anda membeli 1000 maka:1000 X 50 = 50.000)
  2. Murni Besar x 50 harga jackpot yang anda beli
      (contoh:anda membeli 1000 maka:1000 X 50 = 50.000)
  3. BALAK x 200 harga jackpot yang anda beli
      (contoh:anda membeli 1000 maka:1000 X 200 = 200.000)
  4. ENAM DEWA x 6666 harga jackpot yang anda beli
      (contoh:anda membeli 1000 maka:1000 X 6666 = 6.666.000)

Demikian adalah penjelasan dari Multi Jackpot www.lajupoker.info terima kasih dan selamat bermain salam hoki dari kami

Ceme Jackpot Winner

TOP ENAM DEWA
No.TanggalNamaPriceWin
128/05 11:40BRONEXmurni enam6,666,000
228/05 11:38AMELIASISmurni enam6,666,000
328/05 11:38BZANKmurni enam3,333,000
428/05 11:00GERRARD87murni enam3,333,000
528/05 10:38BPOLEHmurni enam666,600
TOP BALAK
No.TanggalNamaPriceWin
128/05 12:14BAMS1982balak200,000
228/05 12:14ZEN2121balak200,000
328/05 12:14LINTA888balak100,000
428/05 12:13SASTROW11balak200,000
528/05 12:13HANENDAbalak20,000
LATEST JACKPOT
No.TanggalNamaPriceWin
128/05 12:14L9CNDQKDG9murni besar50,000
228/05 12:14TINZ15murni besar5,000
328/05 12:14DN4DBASUKI123murni besar50,000
428/05 12:14WOLO22murni besar50,000
528/05 12:14DESTALLmurni besar5,000
628/05 12:14WOLO22murni besar50,000
728/05 12:14PIAMAN87murni besar25,000
828/05 12:14PENG1508murni kecil5,000
928/05 12:14XIO_9murni besar5,000
1028/05 12:14BAMS1982balak200,000
1128/05 12:14ZEN2121balak200,000
1228/05 12:14LINTA888balak100,000
1328/05 12:14MANKBUDImurni kecil5,000
1428/05 12:14ADDE04murni besar25,000
1528/05 12:14LAHIRAN09murni kecil50,000
1628/05 12:14SURIA321murni kecil50,000
1728/05 12:13HENDRA277murni besar50,000
1828/05 12:13JUNTO132murni besar50,000
1928/05 12:13DOANG1murni besar50,000
2028/05 12:13SASTROW11balak200,000
2128/05 12:13HANENDAbalak20,000
2228/05 12:13SINTA_31murni kecil50,000
2328/05 12:13HERI013murni kecil5,000
2428/05 12:13MHS123murni kecil50,000
2528/05 12:13AJI290murni kecil5,000
2628/05 12:13DEAN_9889murni kecil25,000
2728/05 12:13GOLFYBOY1balak20,000
2828/05 12:13BRAMICCObalak200,000
2928/05 12:13LANSER44murni kecil50,000
3028/05 12:13RANDHY007murni kecil50,000
3128/05 12:13WAHYUNI012murni kecil5,000
3228/05 12:12AMANG53murni besar5,000
3328/05 12:12DODY141balak200,000
3428/05 12:12QIJUMBRUTbalak200,000
3528/05 12:12ILHAMS89balak200,000
3628/05 12:12170761murni besar50,000
3728/05 12:12LOYZ30murni besar5,000
3828/05 12:12HUFET123murni kecil50,000
3928/05 12:12SLOWGEXmurni kecil25,000
4028/05 12:12HASSAN918murni besar25,000
4128/05 12:12WIN343murni kecil50,000
4228/05 12:12MEL4NE514murni kecil50,000
4328/05 12:11BAMS1982balak200,000
4428/05 12:11STANND622balak200,000
4528/05 12:11WAHYUNI012murni kecil5,000
4628/05 12:11KAYAHANYARmurni besar50,000
4728/05 12:11BONUSGANmurni kecil50,000
4828/05 12:11WIVANTRICHmurni kecil5,000
4928/05 12:11RRH31murni besar50,000
5028/05 12:11GREOLmurni besar5,000